Flag for Australia Weather past 2 weeks in Melbourne, Victoria, Australia

Now
45 °F

Clear.


Feels Like: 38 °F
Forecast: 41 / 60 °F
Wind: 15 mph from North

Location: Melbourne Airport

Current Time: May 26, 2015 at 4:38:35 AM

Latest Report: May 26, 2015 at 4:00 AM


Visibility: 10 mi

Pressure: 30.36 "Hg

Humidity: 81%

Dew point: 39 °F

Location of MelbourneLocation

Historic Weather in Melbourne — Graph

°F

Melbourne temperature yesterday

Maximum temperature yesterday: 61 °F (at 1:30 PM)
Minimum temperature yesterday: 45 °F (at 12:30 AM)
Average temperature yesterday: 51 °F

Past Weeks' High & Low Weather Summary

 TemperatureHumidityPressure
High68 °F (May 17, 2:30 PM)100% (May 14, 9:30 PM)30.63 "Hg (May 14, 9:30 PM)
Low37 °F (May 24, 9:00 AM)42% (May 12, 1:00 PM)29.71 "Hg (May 11, 3:00 AM)
Average52 °F77%30.27 "Hg
* Reported May 11 3:00 AM — May 26 3:00 AM, Melbourne, Weather by CustomWeather, © 2015

Note: Actual official high and low records may vary slightly from our data, if they occured in-between our weather recording intervals... More about our weather records

Advertising

Melbourne weather history for previous 24 hours

 ConditionsComfort  
Time TempWeatherWind HumidityBarometerVisibility
3:00 AM
Tue, May 26
43 °FClear.15 mph87%30.39 "Hg10 mi
2:30 AM45 °FClear.14 mph87%30.39 "Hg10 mi
2:00 AM45 °FClear.15 mph81%30.39 "Hg10 mi
1:30 AM46 °FClear.14 mph82%30.39 "Hg10 mi
1:00 AM45 °FClear.14 mph87%30.39 "Hg10 mi
12:30 AM45 °FClear.15 mph87%30.39 "Hg10 mi
12:00 AM45 °FClear.15 mph87%30.39 "Hg10 mi
11:30 PM
Mon, May 25
45 °FClear.14 mph87%30.39 "Hg10 mi
11:00 PM46 °FClear.15 mph82%30.39 "Hg10 mi
10:30 PM48 °FClear.15 mph76%30.42 "Hg10 mi
10:00 PM46 °FClear.15 mph82%30.42 "Hg10 mi
9:30 PM46 °FClear.14 mph82%30.42 "Hg10 mi
9:00 PM50 °FClear.15 mph71%30.42 "Hg10 mi
8:30 PM52 °FClear.14 mph67%30.42 "Hg10 mi
8:00 PM52 °FClear.14 mph67%30.42 "Hg10 mi
7:30 PM50 °FClear.10 mph76%30.42 "Hg10 mi
7:00 PM50 °FClear.13 mph76%30.39 "Hg10 mi
6:30 PM52 °FClear.12 mph72%30.39 "Hg10 mi
6:00 PM52 °FClear.12 mph77%30.39 "Hg10 mi
5:30 PM52 °FClear.9 mph72%30.36 "Hg10 mi
5:00 PM55 °FClear.8 mph67%30.36 "Hg10 mi
4:30 PM59 °FClear.7 mph55%30.36 "Hg10 mi
4:00 PM61 °FSunny.8 mph52%30.36 "Hg10 mi
3:30 PM61 °FSunny.9 mph52%30.36 "Hg10 mi
3:00 PM61 °FSunny.9 mph52%30.36 "Hg10 mi
2:30 PM61 °FSunny.10 mph48%30.39 "Hg10 mi
1:30 PM61 °FSunny.9 mph52%30.39 "Hg10 mi
1:00 PM57 °FSunny.10 mph63%30.39 "Hg10 mi
12:30 PM57 °FSunny.12 mph59%30.42 "Hg10 mi
12:00 PM55 °FSunny.13 mph63%30.42 "Hg10 mi
11:30 AM55 °FSunny.13 mph63%30.45 "Hg10 mi
11:00 AM55 °FSunny.13 mph63%30.45 "Hg10 mi
10:30 AM54 °FSunny.10 mph63%30.45 "Hg10 mi
10:00 AM54 °FSunny.10 mph63%30.45 "Hg10 mi
9:30 AM52 °FSunny.10 mph67%30.45 "Hg10 mi
9:00 AM50 °FSunny.12 mph71%30.45 "Hg10 mi
8:30 AM50 °FSunny.9 mph71%30.45 "Hg10 mi
8:00 AM50 °FSunny.8 mph71%30.45 "Hg10 mi
7:30 AM50 °FSunny.13 mph71%30.45 "Hg10 mi
7:00 AM48 °FPartly sunny.12 mph76%30.45 "HgN/A
6:30 AM48 °FSunny.13 mph76%30.42 "Hg10 mi
6:00 AM48 °FClear.10 mph76%30.42 "Hg10 mi
5:30 AM48 °FClear.15 mph76%30.42 "Hg10 mi
5:00 AM46 °FPassing clouds.6 mph82%30.42 "HgN/A
4:30 AM48 °FClear.8 mph76%30.39 "Hg10 mi
4:00 AM46 °FClear.7 mph82%30.39 "Hg10 mi
Weather by CustomWeather, © 2015

See weather overviewHow to use our weather pages